Other Public Products
Issued by NWS Grand Forks, ND

Home | Current Version | Previous Version | Graphics & Text | Print | Product List | Glossary On
Versions: 1 2 3 4 5 6 7 8 9 10 11 12 13 14 15 16 17 18 19 20 21 22 23 24 25 26 27 28 29 30 31 32 33 34 35 36 37 38 39 40 41 42 43 44 45 46 47 48 49 50
081
FPUS83 KFGF 231631
OPUFGF
PRAIRIE TO PINES WEATHER ROUNDUP
NATIONAL WEATHER SERVICE EASTERN NORTH DAKOTA/GRAND FORKS ND
1000 AM CST FRI FEB 23 2018

 **SATELLITE DATA USED TO AUGMENT SKY COVER AT AUTOMATED STATIONS**
 *****  WEATHER ACROSS EASTERN NORTH DAKOTA  *****

CITY           SKY/WX    TMP DP  RH WIND       PRES   REMARKS
GRAND FORKS    PTSUNNY   14   6  70 W12       30.18R WCI   0
GRND FORKS AFB FAIR      13   2  62 NW13      30.18R WCI  -2
GRND FORKS NWS   N/A     15   8  73 NW2       30.15R
BUXTON           N/A     -3  13 100 W10         N/A  WCI -20
DEVILS LAKE    FAIR       0  -5  79 W9        30.19R WCI -15
FARGO          FAIR      17  13  84 NW10      30.19R WCI   5
WAHPETON ARPT  FAIR      18  12  79 W9        30.21R WCI   6
$$

 *****  WEATHER ACROSS CENTRAL AND WESTERN NORTH DAKOTA  *****

CITY           SKY/WX    TMP DP  RH WIND       PRES   REMARKS
JAMESTOWN      FAIR      10   2  69 NW16      30.18S WCI  -7
BISMARCK       FAIR       8   0  69 NW9       30.26R WCI  -5
MINOT          LGT SNOW   8   4  83 SW12      30.20R FOG     WCI  -7
MINOT AFB      FLURRIES   9   4  80 W8        30.19S WCI  -3
GARRISON         N/A      3  -1  83 W9        30.21F WCI -12
WILLISTON      CLOUDY    -3  -9  75 SW12      30.23F WCI -21
DICKINSON      FAIR       2  -7  66 W5        30.16S WCI  -8
HETTINGER      FAIR      -3 -10  72 NW8       30.20F WCI -18
$$

 *****  OTHER OBSERVATIONS NORTHEAST NORTH DAKOTA  *****

CITY           SKY/WX    TMP DP  RH WIND       PRES   REMARKS
WALHALLA       FAIR      10   1  67 W6        30.18S WCI   1
LANGDON        FAIR       1   0  92 NW13      30.14R WCI -16
CAVALIER         N/A     10   1  67 NW10      30.18R WCI  -3
GRAFTON        FAIR      14   3  62 NW8       30.21R WCI   3
CANDO          FAIR       3  -4  72 W10       30.20R WCI -12
FORT TOTTEN      N/A      3  -6  65 W5        29.95S WCI  -6
ROLLA          FLURRIES   5   3  92 NW8       30.14S WCI  -8
RUGBY          CLOUDY     3   1  92 W7        30.19F WCI  -9
 ***** THE ABOVE OBSERVATIONS ARE NON NWS ARE NOT QUALITY
        CONTROLLED AND MAY MIS-REPORT RAIN FOR SNOW...
$$

 *****  OTHER OBSERVATIONS SOUTHEAST NORTH DAKOTA *****

CITY           SKY/WX    TMP DP  RH WIND       PRES   REMARKS
COOPERSTOWN    FAIR       9   1  72 NW14      30.19R WCI  -8
VALLEY CITY    LGT SNOW   9   3  78 NW18      30.21R WCI -10
OAKES            N/A     14   9  79 NW13      30.23R WCI   0
GWINNER          N/A     16   9  73 NW15      30.21R WCI   1
SHEYENNE NWR     N/A     17  13  85 NW9       29.95S WCI   6
BUFFALO          N/A     -3   4 100 S14         N/A  WCI -22
WYNDMERE       NOT AVBL
 ***** THE ABOVE OBSERVATIONS ARE NON NWS ARE NOT QUALITY
       CONTROLLED AND MAY MIS-REPORT RAIN FOR SNOW...
$$

  *****  WEATHER ACROSS NORTHERN MINNESOTA  *****

CITY           SKY/WX    TMP DP  RH WIND       PRES   REMARKS
FLAG ISLAND    FAIR      14   9  79 NW7       30.08S WCI   4
WARROAD        FAIR      18  10  73 W5        30.10S WCI  11
ROSEAU         FAIR      12   9  85 W8        30.11S WCI   1
HALLOCK        FAIR      10   3  72 NW9       30.17R WCI  -2
THF RVR FALLS  CLOUDY    13   7  77 W9        30.14R WCI   1
HALSTAD        NOT AVBL
FOSSTON        FAIR      18  10  73 W8        30.15R HAZE    WCI   7
BAUDETTE       CLOUDY    18  14  84 W5        30.07S WCI  11
WASKISH        LGT SNOW  19  18  93 W5        30.09R WCI  13
CROOKSTON      FAIR      12   7  79 NW9       30.19R WCI   0
$$
  *****  WEATHER ACROSS CENTRAL AND WEST MINNESOTA  *****

CITY           SKY/WX    TMP DP  RH WIND       PRES   REMARKS
BEMIDJI        CLOUDY    21  17  84 W10       30.10R FOG     WCI  10
PARK RAPIDS    FAIR      20  17  88 NW8       30.09R WCI  10
WADENA         MIX PCPN  23  18  80 NW8       30.12R WCI  14
DETROIT LAKES  LGT SNOW  19  18  93 NW12      30.15R VSB 3/4 WCI   7
MOORHEAD       FAIR      16  10  79 NW6       30.20R WCI   7
FERGUS FALLS   FAIR      16  12  86 NW10      30.18R WCI   3
ELBOW LAKE     CLOUDY    17  15  93 NW14      30.18R WCI   2
MORRIS MN      FAIR      21  18  86 NW14      30.18R WCI   8
STAPLES        FLURRIES  23  18  80 W6        30.11R WCI  16
WHEATON        FAIR      19  16  86 W12       30.23R WCI   7
$$
  *****  WEATHER ELSEWHERE ACROSS MINNESOTA  *****

CITY           SKY/WX    TMP DP  RH WIND       PRES   REMARKS
DULUTH         CLOUDY    27  22  81 W7        29.99R WCI  19
INTRNTL FALLS  LGT SNOW  22  18  85 N5        30.06S FOG     WCI  16
ELY            LGT SNOW  25  21  86 NW5       29.99S WCI  19
CLOQUET        FLURRIES  27  21  80 W9        30.02R WCI  17
BRAINERD       CLOUDY    24  17  74 W12       30.10R WCI  13
HIBBING        CLOUDY    22  18  85 NW9       30.01S WCI  12
ALEXANDRIA     FAIR      22  18  85 NW12      30.13S WCI  10
SAINT CLOUD    FAIR      24  19  81 NW16      30.11R WCI  11
MINNEAPOLIS    CLOUDY    26  23  88 W12       30.13R WCI  16
$$

  *****  WEATHER ACROSS SOUTH DAKOTA  *****

CITY           SKY/WX    TMP DP  RH WIND       PRES   REMARKS
SIOUX FALLS    CLOUDY    20  18  92 NW9       30.23R WCI   9
BROOKINGS      CLOUDY    21  18  88 NW10      30.19R WCI  10
WATERTOWN      FOG       16  15  96 NW13      30.20R VSB 1   WCI   2
HURON          CLOUDY    14  11  87 NW9       30.27R WCI   2
SISSETON         N/A     21  16  81 NW13      30.20R WCI   9
ABERDEEN       FAIR      16  11  80 NW6       30.25R WCI   7
MITCHELL       CLOUDY    14  10  84 W13       30.28R WCI   0
PIERRE         FAIR       4   1  88 SW7       30.27R WCI  -8
MOBRIDGE       FAIR       7  -2  66 NW16      30.23R WCI -11
RAPID CITY     FAIR       8   0  69 CALM      30.18S
$$

  *****  SOME WEATHER IN NEARBY STATES *****

CITY           SKY/WX    TMP DP  RH WIND       PRES   REMARKS
GLASGOW MT     FAIR     -11 -16  78 SE10      30.17F WCI -30
GREAT FALLS MT FAIR       8  -1  66 S18       29.99F WCI -11
CHEYENNE WY    FAIR      22  16  78 SW6       30.01R WCI  14
SCOTTSBLUFF NE PTSUNNY   13   8  81 NW6       30.15R WCI   4
OMAHA NE       FAIR      26  21  81 N9        30.29R WCI  17
DES MOINES IA  FAIR      31  24  75 W12       30.27R WCI  22
DAVENPORT IA   CLOUDY    36  32  85 W15       30.24R
CHICAGO IL     CLOUDY    43  40  89 W14G23    30.11R
EAU CLAIRE WI  CLOUDY    29  26  89 W14       30.09R FOG     WCI  18
LA CROSSE WI   PTSUNNY   34  27  75 W12       30.14R
$$

  *****  SOME NATIONAL WEATHER *****

CITY           SKY/WX    TMP DP  RH WIND       PRES   REMARKS
LA GUARDIA NY  LGT RAIN  38  33  82 NE10      30.60F
RALEIGH NC     CLOUDY    54  51  90 E5        30.49F
ATLANTA GA     CLOUDY    65  64  97 S3        30.43S
NEW ORLEANS LA LGT RAIN  72  71  97 W3        30.28S FOG
OKLAHOMA CITY  CLOUDY    33  33 100 E10       30.25R FOG     WCI  25
ALBUQUERQUE NM FAIR      32  17  54 N6        30.08R
SALT LAKE CITY LGT SNOW  28  24  85 NW17      29.95R VSB 3/4 WCI  16
LOS ANGELES CA FAIR      50  23  34 N9G20     30.21R
BOISE ID       FAIR      16   9  74 NW7       30.27R WCI   6
SEATTLE WA     MOCLDY    25  17  72 SE9       30.42F WCI  15
$$

*** WEATHER ACROSS MANITOBA...SASKATCHEWAN AND ONTARIO ***
                ***ONTARIO***

CITY           SKY/WX    TMP DP  RH WIND       PRES   REMARKS
GERALDTON      LGT SNOW  23  21  93 CALM      29.98F VSB 3/4
THUNDER BAY    LGT SNOW  25  23  93 S5        29.99F WCI  19
SIOUX LOOKOUT  CLOUDY    16   5  62 NW3       30.03S
TORONTO        LGT RAIN  36  34  93 SE8       30.16F
BIG TROUT LK   MOSUNNY    3  -9  55 NW9       30.08F WCI -11
PICKLE LAKE    CLOUDY    10   1  67 CALM      30.02F
DRYDEN         CLOUDY    18   5  57 NE3       30.03F
KENORA         CLOUDY    14   7  73 N3        30.05F
$$
                *** MANITOBA***

CITY           SKY/WX    TMP DP  RH WIND       PRES   REMARKS
BRANDON        PTSUNNY    5   1  85 W9        30.17S FOG     WCI  -9
DAUPHIN        SUNNY      3  -2  78 W8        30.16S WCI -10
ISLAND LAKE    CRYSTALS  -4  -9  77 W3        30.12F
PILOT MOUND      N/A      1  -2  85 NW9         N/A  WCI -14
THE PAS        FLURRIES  12   3  67 S8        30.04F WCI   1
THOMPSON       PTSUNNY  -11 -18  70 VRB2      30.06F
WINNIPEG       PTSUNNY    1  -2  85 NW7       30.17R WCI -11
LYNN LAKE      PTSUNNY    0  -8  71 S9        29.87F WCI -16
CHURCHILL      MOSUNNY  -22 -31  63 W12       30.08R WCI -45
GILLAM         SUNNY    -15 -24  64 W7        30.11S WCI -31
$$
                ***SASKATCHEWAN***

CITY           SKY/WX    TMP DP  RH WIND       PRES   REMARKS
ESTEVAN        CLOUDY     9   3  78 W8        30.16F WCI  -4
KINDERSLEY     MOSUNNY    0  -4  85 S8        29.96F WCI -15
LLOYDMINSTER   MOSUNNY    3   0  85 S15       29.82F WCI -15
PRINCE ALBERT  CRYSTALS  -2  -8  78 CALM      30.03F
REGINA         MOSUNNY    3   0  85 SE3       30.10F
YORKTON        SUNNY      0  -4  85 S7        30.11F W



USA.gov is the U.S. government's official web portal to all federal, state and local government web resources and services.